CW4489 Marathon FL US current weather conditions

sailwx.info

Wind from 297 at 0 knots gusting 4

Air temperature 30.6° C
Dewpoint 25.8° C

Last reported at 2015-Apr-26 23:49 UTC.
Time now 2015-Apr-27 00:20 UTC

Location: N 24°44' W 081°02'.
View on Google Maps.

See reports from other nearby stations

  
Tides and Currents Weather Stations Pressure Air Temp Water Temp Dewpoint Dewpoint Depression Visibility Wind Speed Wind Dir Waves Ship Positions
date/time (UTC)wind fromknots sea level pressurealtimeterstation pressurevisibilityair tempwater tempwave heightnotes
2015-Apr-26 23:49 297 0 gusting 4 30.6
2015-Apr-26 23:39 309 2 gusting 4 30.6
2015-Apr-26 23:29 286 31.1
2015-Apr-26 23:09 304 2 gusting 7 31.7
2015-Apr-26 22:49 304 0 gusting 5 32.2
2015-Apr-26 22:09 227 2 gusting 6 33.3
2015-Apr-26 21:59 278 2 gusting 6 33.3
2015-Apr-26 21:49 221 4 gusting 7 33.3
2015-Apr-26 21:39 223 4 gusting 4 33.9
2015-Apr-26 21:29 227 2 gusting 7 33.9
2015-Apr-26 21:09 206 1 gusting 5 33.9
2015-Apr-26 20:59 263 0 gusting 6 33.3
2015-Apr-26 20:39 231 1 gusting 6 33.3
2015-Apr-26 20:19 283 2 gusting 6 33.9
2015-Apr-26 20:09 223 4 gusting 7 33.9
2015-Apr-26 19:59 228 3 gusting 6 33.9
2015-Apr-26 19:29 226 5 gusting 8 33.3
2015-Apr-26 19:19 216 5 gusting 8 33.3
2015-Apr-26 19:09 246 6 gusting 6 33.3
2015-Apr-26 18:49 227 5 gusting 6 33.3
2015-Apr-26 18:39 232 3 gusting 7 33.3
2015-Apr-26 18:29 240 2 gusting 7 33.3
2015-Apr-26 18:19 221 6 gusting 6 33.3
2015-Apr-26 17:59 220 2 gusting 7 32.8
2015-Apr-26 17:49 255 2 gusting 8 32.8
2015-Apr-26 17:29 221 6 gusting 7 32.2
2015-Apr-26 17:09 214 2 gusting 6 31.7
2015-Apr-26 16:49 209 4 gusting 8 31.7
2015-Apr-26 16:29 205 5 gusting 8 31.7
2015-Apr-26 16:09 227 6 gusting 6 31.7
2015-Apr-26 15:59 217 5 gusting 7 31.7
2015-Apr-26 15:49 205 6 gusting 8 31.7
2015-Apr-26 15:39 235 8 gusting 8 31.7
2015-Apr-26 15:19 229 2 gusting 7 31.7
2015-Apr-26 15:09 212 2 gusting 6 31.7
2015-Apr-26 14:59 202 5 gusting 7 31.1
2015-Apr-26 14:49 199 2 gusting 6 31.1
2015-Apr-26 14:39 257 6 gusting 6 31.1
2015-Apr-26 14:29 223 2 gusting 7 31.1
2015-Apr-26 14:19 225 2 gusting 6 31.1
2015-Apr-26 14:09 218 4 gusting 8 30.6
2015-Apr-26 13:59 231 2 gusting 6 30.6
2015-Apr-26 13:39 237 2 gusting 6 30.6
2015-Apr-26 13:29 209 1 gusting 7 30.0
2015-Apr-26 13:19 227 4 gusting 6 30.0
2015-Apr-26 13:09 210 2 gusting 4 30.0
2015-Apr-26 12:39 231 0 gusting 3 28.9
2015-Apr-26 12:29 219 0 gusting 2 28.9
2015-Apr-26 12:19 241 1 gusting 2 28.9
2015-Apr-26 12:09 233 0 gusting 3 28.3
2015-Apr-26 11:59 236 28.3
2015-Apr-26 11:49 242 1 gusting 2 28.3
2015-Apr-26 11:39 239 1 gusting 2 28.3
2015-Apr-26 11:29 236 0 gusting 4 28.3
2015-Apr-26 11:19 263 28.3
2015-Apr-26 10:59 202 2 gusting 6 27.8
2015-Apr-26 10:49 227 1 gusting 6 27.8
2015-Apr-26 10:39 215 2 gusting 6 27.8
2015-Apr-26 10:29 213 3 gusting 6 27.8
2015-Apr-26 10:19 224 4 gusting 6 27.8
2015-Apr-26 09:59 212 2 gusting 6 28.3
2015-Apr-26 09:49 213 5 gusting 7 28.3
2015-Apr-26 09:39 215 4 gusting 8 28.3
2015-Apr-26 09:29 219 6 gusting 7 28.3
2015-Apr-26 09:19 202 5 gusting 8 27.8
2015-Apr-26 08:49 219 8 gusting 8 27.8
2015-Apr-26 08:29 163 5 gusting 9 27.8
2015-Apr-26 08:09 204 4 gusting 8 27.8
2015-Apr-26 07:49 186 8 gusting 11 27.8
2015-Apr-26 07:39 199 6 gusting 10 27.8
2015-Apr-26 07:09 211 8 gusting 12 27.8
2015-Apr-26 06:59 211 6 gusting 10 27.8
2015-Apr-26 06:49 201 3 gusting 8 27.8
2015-Apr-26 06:29 150 2 gusting 6 27.8
2015-Apr-26 06:19 153 2 gusting 8 27.8
2015-Apr-26 06:09 191 5 gusting 6 27.8
2015-Apr-26 05:59 156 3 gusting 5 27.8
2015-Apr-26 05:49 126 2 gusting 4 27.8
2015-Apr-26 05:09 150 1 gusting 6 27.2
2015-Apr-26 04:49 153 2 gusting 2 27.2
2015-Apr-26 04:29 178 27.2
2015-Apr-26 04:19 163 27.2
2015-Apr-26 04:09 161 0 gusting 2 27.2
2015-Apr-26 03:49 141 1 gusting 3 27.8
2015-Apr-26 03:39 184 1 gusting 3 27.8
2015-Apr-26 03:29 141 0 gusting 2 27.8
2015-Apr-26 02:59 148 27.8
2015-Apr-26 02:49 134 1 gusting 2 27.8
2015-Apr-26 02:29 186 2 gusting 2 27.8
2015-Apr-26 02:19 141 0 gusting 2 27.8
2015-Apr-26 01:59 167 2 gusting 3 27.8
2015-Apr-26 01:19 176 27.8
2015-Apr-26 00:59 163 0 gusting 2 28.3
2015-Apr-26 00:49 161 0 gusting 3 28.3
2015-Apr-26 00:39 158 0 gusting 4 28.3
2015-Apr-26 00:29 166 1 gusting 3 28.3
2015-Apr-26 00:19 140 2 gusting 5 28.3
2015-Apr-26 00:09 166 28.3
2015-Apr-25 23:59 136 0 gusting 3 28.3
2015-Apr-25 23:49 199 2 gusting 5 28.9
2015-Apr-25 23:39 182 2 gusting 5 28.9
2015-Apr-25 23:29 186 1 gusting 3 28.9
2015-Apr-25 23:09 190 1 gusting 3 30.0
2015-Apr-25 22:49 164 0 gusting 2 30.6
2015-Apr-25 22:39 150 1 gusting 2 30.6
2015-Apr-25 22:29 165 31.1
2015-Apr-25 22:19 166 0 gusting 2 31.1
2015-Apr-25 21:59 176 2 gusting 2 31.7
2015-Apr-25 21:49 206 2 gusting 3 31.7
2015-Apr-25 21:39 167 31.7
2015-Apr-25 21:29 178 0 gusting 4 31.7
2015-Apr-25 21:19 189 1 gusting 2 31.7
2015-Apr-25 21:09 162 2 gusting 2 32.2
2015-Apr-25 20:59 166 2 gusting 2 32.2
2015-Apr-25 20:49 169 1 gusting 5 32.2
2015-Apr-25 20:39 209 2 gusting 5 32.2
2015-Apr-25 20:29 195 3 gusting 3 32.2
2015-Apr-25 20:19 167 1 gusting 5 32.8
2015-Apr-25 20:09 161 32.2
2015-Apr-25 19:39 119 0 gusting 3 32.8
2015-Apr-25 19:19 184 2 gusting 6 32.8
2015-Apr-25 18:39 161 2 gusting 2 32.8
2015-Apr-25 18:29 192 1 gusting 4 32.8
2015-Apr-25 18:19 172 2 gusting 4 32.8
2015-Apr-25 17:39 153 2 gusting 6 32.2
2015-Apr-25 17:29 183 3 gusting 6 32.8
2015-Apr-25 17:09 142 2 gusting 4 32.2
2015-Apr-25 16:59 174 2 gusting 4 32.2
2015-Apr-25 16:49 193 5 gusting 6 32.2
2015-Apr-25 16:39 189 4 gusting 5 31.7
2015-Apr-25 16:29 175 2 gusting 7 31.1
2015-Apr-25 15:59 182 5 gusting 6 31.1
2015-Apr-25 15:39 173 2 gusting 7 30.6
2015-Apr-25 15:29 210 2 gusting 6 30.6
2015-Apr-25 15:19 207 5 gusting 7 30.0
2015-Apr-25 14:59 190 4 gusting 7 30.0
2015-Apr-25 14:49 192 4 gusting 8 30.0
2015-Apr-25 14:19 198 5 gusting 6 29.4
2015-Apr-25 13:59 178 4 gusting 7 28.9
2015-Apr-25 13:49 196 5 gusting 8 28.9
2015-Apr-25 13:39 204 4 gusting 8 28.9
2015-Apr-25 13:29 169 6 gusting 8 28.3
2015-Apr-25 13:19 209 2 gusting 6 28.3
2015-Apr-25 12:49 212 3 gusting 6 27.8
2015-Apr-25 12:39 211 5 gusting 6 27.8
2015-Apr-25 11:49 160 2 gusting 6 27.2
2015-Apr-25 11:29 242 4 gusting 6 27.2
2015-Apr-25 11:19 184 4 gusting 6 27.2
2015-Apr-25 11:09 207 3 gusting 6 27.2
2015-Apr-25 10:59 221 6 gusting 6 27.2
2015-Apr-25 10:49 171 1 gusting 7 27.2
2015-Apr-25 10:39 209 6 gusting 6 27.2
2015-Apr-25 10:29 188 4 gusting 6 27.2
2015-Apr-25 09:49 133 1 gusting 2 27.2
2015-Apr-25 09:39 133 27.2
2015-Apr-25 09:29 133 27.2
2015-Apr-25 09:09 114 26.7
2015-Apr-25 08:59 113 26.7
2015-Apr-25 08:39 030 26.7
2015-Apr-25 08:29 030 26.7
2015-Apr-25 07:29 030 27.2
2015-Apr-25 07:09 030 1 gusting 2 27.2
2015-Apr-25 06:49 030 27.2
2015-Apr-25 06:19 011 27.8
2015-Apr-25 05:59 332 2 gusting 6 27.8
2015-Apr-25 05:29 344 2 gusting 2 28.3
2015-Apr-25 05:19 347 4 gusting 5 28.3
2015-Apr-25 05:09 348 1 gusting 5 28.3
2015-Apr-25 04:59 336 5 gusting 6 28.3
2015-Apr-25 04:49 342 5 gusting 5 28.3
2015-Apr-25 04:39 316 4 gusting 5 28.3
2015-Apr-25 04:29 360 3 gusting 5 28.3
2015-Apr-25 04:19 355 1 gusting 6 28.3
2015-Apr-25 04:09 018 2 gusting 4 27.8
2015-Apr-25 03:59 355 2 gusting 6 27.8
2015-Apr-25 03:49 317 2 gusting 5 27.8
2015-Apr-25 03:39 005 2 gusting 6 27.8
2015-Apr-25 03:29 348 0 gusting 3 27.8
2015-Apr-25 03:19 336 6 gusting 6 27.8
2015-Apr-25 03:09 336 4 gusting 4 27.8
2015-Apr-25 02:59 339 2 gusting 7 27.8
2015-Apr-25 02:49 339 3 gusting 5 27.8
2015-Apr-25 02:29 349 6 gusting 6 28.3
2015-Apr-25 02:19 345 2 gusting 4 27.8
2015-Apr-25 02:09 298 2 gusting 5 27.8
2015-Apr-25 01:59 351 3 gusting 7 27.8
2015-Apr-25 01:49 348 6 gusting 6 27.8
2015-Apr-25 01:39 342 4 gusting 6 27.8
2015-Apr-25 01:29 332 6 gusting 6 28.3
2015-Apr-25 01:19 342 3 gusting 5 28.3
2015-Apr-25 01:09 342 6 gusting 8 28.3
2015-Apr-25 00:59 337 4 gusting 6 28.3
2015-Apr-25 00:39 340 2 gusting 7 28.3
2015-Apr-25 00:19 009 1 gusting 4 28.3
2015-Apr-25 00:09 337 3 gusting 6 28.3